Home   Weather   San Bernardino   Past weeks
Flag for USA

Past Weather in San Bernardino, California, USA — Yesterday and Last 2 Weeks

Now
77 °F

Sunny.


Feels Like: 78 °F
Forecast: 77 / 52 °F
Wind: 9 mph from West

Location: Riverside Municipal Airport

Current Time: Oct 14, 2019 at 4:08:51 pm

Latest Report: Oct 14, 2019 at 2:53 pm


Visibility: 10 mi

Pressure: 29.84 "Hg

Humidity: 36%

Dew Point: 48 °F

Location of San BernardinoLocation

Past Weather in San Bernardino — Graph

°F

San Bernardino Temperature Yesterday

Maximum temperature yesterday: 82 °F (at 1:53 pm)
Minimum temperature yesterday: 51 °F (at 6:53 am)
Average temperature yesterday: 65 °F

High & Low Weather Summary for the Past Weeks

 TemperatureHumidityPressure
High97 °F (Oct 6, 2:53 pm)90% (Oct 9, 8:18 am)30.02 "Hg (Oct 9, 8:18 am)
Low50 °F (Oct 1, 6:53 am)4% (Oct 10, 2:55 pm)29.73 "Hg (Oct 9, 3:53 pm)
Average68 °F44%29.88 "Hg
* Reported Sep 29 2:53 pm — Oct 14 2:53 pm, San Bernardino. Weather by CustomWeather, © 2019

Note: Actual official high and low records may vary slightly from our data, if they occured in-between our weather recording intervals... More about our weather records

Advertising

San Bernardino Weather History for the Previous 24 Hours

Scroll right to see more
 ConditionsComfort  
Time TempWeatherWind HumidityBarometerVisibility
2:53 pm
Mon, Oct 14
77 °FSunny.9 mph36%29.84 "Hg10 mi
1:53 pm75 °FSunny.6 mph39%29.85 "Hg10 mi
12:53 pm73 °FSunny.No wind43%29.88 "Hg10 mi
11:53 am70 °FSunny.No wind47%29.91 "Hg10 mi
10:53 am68 °FSunny.No wind55%29.92 "Hg10 mi
9:53 am65 °FPassing clouds.No wind61%29.93 "Hg10 mi
9:44 am64 °FScattered clouds.No wind63%29.97 "Hg10 mi
8:53 am63 °FPartly sunny.No wind65%29.93 "Hg10 mi
7:53 am61 °FOvercast.No wind78%29.91 "Hg9 mi
6:53 am60 °FOvercast.No wind80%29.90 "Hg9 mi
5:53 am59 °FPassing clouds.No wind84%29.89 "Hg9 mi
4:53 am60 °FOvercast.3 mph80%29.87 "Hg9 mi
3:53 am59 °FOvercast.3 mph87%29.87 "Hg9 mi
2:53 am60 °FOvercast.3 mph83%29.86 "Hg10 mi
2:02 am59 °FOvercast.No wind87%29.91 "Hg9 mi
1:34 am58 °FOvercast.No wind87%29.91 "Hg10 mi
1:19 am58 °FPassing clouds.No wind87%29.91 "Hg10 mi
12:53 am57 °FClear.No wind90%29.86 "Hg10 mi
11:53 pm
Sun, Oct 13
59 °FClear.No wind87%29.87 "Hg10 mi
10:53 pm60 °FClear.No wind83%29.86 "Hg10 mi
9:53 pm61 °FClear.No wind81%29.85 "Hg10 mi
8:53 pm61 °FClear.8 mph81%29.84 "Hg10 mi
7:53 pm64 °FClear.10 mph70%29.83 "Hg10 mi
6:53 pm67 °FClear.10 mph61%29.81 "Hg10 mi
5:53 pm72 °FSunny.13 mph48%29.78 "Hg10 mi
4:53 pm76 °FSunny.12 mph40%29.77 "Hg10 mi
Weather by CustomWeather, © 2019

See weather overview